Location: ??????
(41.3164°N, 22.6615°E)
Time: 06:31:52
(UTC+00:00)

CUBEBUG 2 - Pass Details

Date: 05 July 2022
Orbit: 584 x 693 km, 97.7° (Epoch: 07 August)

Event Time Altitude Azimuth Distance (km) Brightness Sun altitude
Rises 02:10:20 0° 2° (N) 2,846 ? -8.6°
Reaches altitude 10° 02:12:38 10° 352° (N) 1,952 ? -8.3°
Maximum altitude 02:16:24 32° 290° (WNW) 1,060 ? -7.8°
Drops below altitude 10° 02:20:14 10° 227° (SW) 1,992 ? -7.2°
Enters shadow 02:20:30 - 225° (SW) 2,091 ? -7.2°
